Tracking 25693 objects as of 1-Jul-2022
HD Live streaming from Space Station
objects crossing your sky now

DELTA 1 DEB

Track DELTA 1 DEB now!
10-day predictions


NORAD ID: 12166
Int'l Code: 1978-026F
Perigee: 815.1 km
Apogee: 870.6 km
Inclination: 99.0 °
Period: 101.6 minutes
Semi major axis: 7213 km
RCS: 0.6029 m2 (medium)
Launch date: March 5, 1978
Source: United States (US)
Launch site: AIR FORCE WESTERN TEST RANGE (AFWTR)

Note: This is SATELLITE DEBRIS
aabbcc
Your satellite tracking list
Your tracking list is empty




NASA's NSSDC Master Catalog

Two Line Element Set (TLE):
1 12166U 78026F   22182.51395705  .00000136  00000-0  89993-4 0  9991
2 12166  98.9755 185.4175 0038463  17.2142 100.0006 14.16945506135011
Source of the keplerian elements: AFSPC